NOAA NWS Hourly Roundups by Site

Regional Weather Roundup for Green Bay, WI

To Select Another Site Choose from List

Select Site:  

000
ASUS43 KGRB 081811
RWRGRB

NORTH-CENTRAL AND NORTHEAST WISCONSIN REGIONAL WEATHER ROUNDUP
NATIONAL WEATHER SERVICE GREEN BAY WI
100 PM CDT WED APR 08 2020

WIZ005-009-010>012-018-019-081900-
NORTH CENTRAL WISCONSIN

CITY           SKY/WX    TMP DP  RH WIND       PRES   REMARKS
IRONWOOD       FAIR      48  28  46 NW21G26   29.72S
MANITOWISH WTR FAIR      53  21  28 NW21G31   29.69S
ARBOR VITAE    FAIR      57  29  34 NW17G24   29.68S
EAGLE RIVER    FAIR      54  24  31 W16G26    29.67S
LAND O LAKES   FAIR      54  26  34 NW13G23   29.68F
RHINELANDER    PTSUNNY   55  33  43 W13G25    29.69F
PHILLIPS       FAIR      53  25  33 W13G21    29.71S
ANTIGO         PTSUNNY   55  33  43 W20G30    29.70R
TOMAHAWK       PTSUNNY   53  32  45 W10G21    29.71S
MERRILL        CLOUDY    55  33  44 W12G20    29.72S
$$

WIZ013-073-081900-
NORTHEAST WISCONSIN

CITY           SKY/WX    TMP DP  RH WIND       PRES   REMARKS
IRON MOUNTAIN  FAIR      58  31  35 W15G28    29.63F
MARINETTE      FAIR      57  45  64 S12       29.66F
OCONTO         FAIR      56  47  71 SE10      29.66F
$$

WIZ017-030-035>037-045-081900-
CENTRAL WISCONSIN

CITY           SKY/WX    TMP DP  RH WIND       PRES   REMARKS
MEDFORD        FAIR      52  32  46 W16G22    29.73F
WAUSAU         CLOUDY    57  35  43 W16G23    29.69F
MOSINEE        PTSUNNY   55  36  47 W14       29.73F
MARSHFIELD     CLOUDY    55  37  50 W12       29.73F
WISC RAPIDS    CLOUDY    58  40  51 W6        29.75F
STEVENS POINT  CLOUDY    56  36  46 W9        29.74S
WAUPACA        PTSUNNY   62  34  34 MISG      29.73S
SHAWANO        FAIR      62  34  34 W9        29.68F
CLINTONVILLE   FAIR      62  31  31 W14       29.69F
WAUTOMA        CLOUDY    57  39  51 SW10      29.75F
$$

WIZ038-039-048-051-081900-
FOX VALLEY

CITY           SKY/WX    TMP DP  RH WIND       PRES   REMARKS
NWS GREEN BAY  FAIR      61  42  49 SW8       29.70F
APPLETON       PTSUNNY   57  41  54 SW14      29.71F
OSHKOSH        CLOUDY    59  39  47 W8        29.72F
FOND DU LAC    PTSUNNY   62  42  47 SW10G18   29.73F
$$

WIZ022-050-052-081900-
EAST CENTRAL WISCONSIN

CITY           SKY/WX    TMP DP  RH WIND       PRES   REMARKS
EPHRAIM        FAIR      53  40  61 W5        29.66F
WASHINGTON ISL FAIR      52  41  66 SW7       29.66F
STURGEON BAY   FAIR      58  41  53 VRB6      29.68F
MANITOWOC      FAIR      53  48  83 SE8       29.72F
SHEBOYGAN      FAIR      66  40  38 W12       29.72F
$$

LMZ563-521-522-541>543-081900-
LAKESHORE

STATION/POSITION TIME  TEMP    WIND        PRES    VSBY  WAVE
                       AIR SEA DIR/SP/G                  HT/PER
                 (UTC) (F)     (DEG/KT/KT) (MB)    (MI)  (FT/S)
SHEBOYGAN LKSHOR 1800   44     150/ 10/ 12   N/A
KEWAUNEE LKSHORE 1724   43     170/  9/ 12 1005.8
NORTHPORT PIER   1740   45     120/  2/  5 1005.1F
SISTER BAY LKSHO 1758   49        CALM       N/A
MENOMINEE LKSHOR 1724   47 40  170/ 11/ 14 1004.9
$$


 

View Past Reports for Green Bay, WI.

Products Courtesy of NOAA-NWS
NWS Information Parsing Script by Ken True at Saratoga Weather - Script by SE Lincoln Weather.